| time (UTC) | temp C | wind direction | speed KPH | gust KPH | rain 1hr cm | rain 24hr cm | rain mn cm | humidity % | barometer mb |
| 20260504175517 | 22 | 235 | 4.8 | 11.3 | 0.00 | 0.00 | 0.00 | 36 | 1011.1 |
| 20260504174521 | 22 | 261 | 3.2 | 11.3 | 0.00 | 0.00 | 0.00 | 37 | 1011.2 |
| 20260504173518 | 22 | 242 | 4.8 | 12.9 | 0.00 | 0.00 | 0.00 | 37 | 1011.3 |
| 20260504172518 | 22 | 261 | 3.2 | 9.7 | 0.00 | 0.00 | 0.00 | 38 | 1011.5 |
| 20260504171518 | 21 | 238 | 3.2 | 11.3 | 0.00 | 0.00 | 0.00 | 38 | 1011.7 |
| 20260504170539 | 21 | 268 | 3.2 | 11.3 | 0.00 | 0.00 | 0.00 | 38 | 1011.8 |
| 20260504150518 | 18 | 242 | 3.2 | 6.4 | 0.00 | 0.00 | 0.00 | 50 | 1013.3 |
| 20260504140559 | 16 | 251 | 4.8 | 8.0 | 0.00 | 0.00 | 0.00 | 54 | 1013.8 |
| 20260504130517 | 13 | 246 | 3.2 | 6.4 | 0.00 | 0.00 | 0.00 | 65 | 1014.4 |
| 20260504110519 | 4 | 197 | 0.0 | 1.6 | 0.00 | 0.00 | 0.00 | 89 | 1015.6 |
| 20260504100517 | 3 | 0.0 | 0.0 | 0.00 | 0.00 | 0.00 | 89 | 1015.6 | |
| 20260504081519 | 3 | 0.0 | 0.0 | 0.00 | 0.00 | 0.00 | 85 | 1015.5 | |
| 20260504080517 | 3 | 0.0 | 0.0 | 0.00 | 0.00 | 0.00 | 84 | 1015.4 | |
| 20260504050520 | 5 | 0.0 | 0.0 | 0.00 | 0.00 | 0.00 | 78 | 1014.8 | |
| 20260504045517 | 5 | 0.0 | 0.0 | 0.00 | 0.00 | 0.00 | 77 | 1014.7 | |
| 20260504044517 | 5 | 0.0 | 0.0 | 0.00 | 0.00 | 0.00 | 73 | 1014.7 | |
| 20260504043521 | 6 | 0.0 | 0.0 | 0.00 | 0.00 | 0.00 | 70 | 1014.6 | |
| 20260504042520 | 6 | 0.0 | 0.0 | 0.00 | 0.00 | 0.00 | 70 | 1014.4 | |
| 20260504041518 | 6 | 0.0 | 0.0 | 0.00 | 0.00 | 0.00 | 70 | 1014.3 | |
| 20260504040518 | 6 | 0.0 | 0.0 | 0.00 | 0.00 | 0.00 | 69 | 1014.3 | |
| 20260504035538 | 6 | 0.0 | 0.0 | 0.00 | 0.00 | 0.00 | 70 | 1014.2 | |
| 20260504034518 | 6 | 0.0 | 0.0 | 0.00 | 0.00 | 0.00 | 72 | 1014.1 | |
| 20260504033524 | 6 | 0.0 | 0.0 | 0.00 | 0.00 | 0.00 | 71 | 1014.1 | |
| 20260504032600 | 6 | 0.0 | 0.0 | 0.00 | 0.00 | 0.00 | 68 | 1014.0 | |
| 20260504031519 | 6 | 0.0 | 0.0 | 0.00 | 0.00 | 0.00 | 69 | 1014.0 | |
| 20260504030519 | 6 | 0.0 | 0.0 | 0.00 | 0.00 | 0.00 | 72 | 1014.0 | |
| 20260504025519 | 6 | 0.0 | 0.0 | 0.00 | 0.00 | 0.00 | 70 | 1014.0 | |
| 20260504024516 | 6 | 0.0 | 0.0 | 0.00 | 0.00 | 0.00 | 66 | 1014.0 | |
| 20260504023520 | 6 | 0.0 | 0.0 | 0.00 | 0.00 | 0.00 | 64 | 1014.0 | |
| 20260504022520 | 6 | 0.0 | 0.0 | 0.00 | 0.00 | 0.00 | 63 | 1014.0 | |
| 20260504021520 | 7 | 0.0 | 0.0 | 0.00 | 0.00 | 0.00 | 63 | 1013.9 | |
| 20260504020517 | 7 | 0.0 | 0.0 | 0.00 | 0.00 | 0.00 | 64 | 1013.9 | |
| 20260504015517 | 7 | 0.0 | 0.0 | 0.00 | 0.00 | 0.00 | 63 | 1013.9 | |
| 20260504014518 | 7 | 0.0 | 0.0 | 0.00 | 0.00 | 0.00 | 63 | 1013.8 | |
| 20260504013521 | 7 | 0.0 | 0.0 | 0.00 | 0.00 | 0.00 | 63 | 1013.7 | |
| 20260504012518 | 8 | 0.0 | 0.0 | 0.00 | 0.00 | 0.00 | 64 | 1013.5 | |
| 20260504011518 | 8 | 0.0 | 0.0 | 0.00 | 0.00 | 0.00 | 62 | 1013.4 | |
| 20260504010538 | 8 | 0.0 | 0.0 | 0.00 | 0.00 | 0.00 | 62 | 1013.2 | |
| 20260504005519 | 9 | 0.0 | 0.0 | 0.00 | 0.00 | 0.00 | 61 | 1013.1 | |
| 20260504004519 | 10 | 233 | 0.0 | 1.6 | 0.00 | 0.00 | 0.00 | 60 | 1012.9 |
| 20260504003519 | 10 | 0.0 | 0.0 | 0.00 | 0.00 | 0.00 | 54 | 1012.8 | |
| 20260504002539 | 11 | 0.0 | 0.0 | 0.00 | 0.00 | 0.00 | 52 | 1012.6 | |
| 20260504001540 | 11 | 229 | 1.6 | 3.2 | 0.00 | 0.00 | 0.00 | 50 | 1012.5 |
| 20260504000520 | 12 | 218 | 1.6 | 3.2 | 0.00 | 0.00 | 0.00 | 46 | 1012.4 |
| 20260503235537 | 12 | 219 | 0.0 | 3.2 | 0.00 | 0.00 | 0.00 | 44 | 1012.3 |
| 20260503234517 | 13 | 216 | 1.6 | 3.2 | 0.00 | 0.00 | 0.00 | 44 | 1012.2 |
| 20260503233517 | 13 | 206 | 0.0 | 3.2 | 0.00 | 0.00 | 0.00 | 41 | 1012.0 |
| 20260503231018 | 14 | 240 | 3.2 | 8.0 | 0.00 | 0.00 | 0.00 | 38 | 1011.8 |
| 20260503230018 | 14 | 234 | 3.2 | 6.4 | 0.00 | 0.00 | 0.00 | 38 | 1011.8 |
| 20260503225018 | 14 | 256 | 1.6 | 3.2 | 0.00 | 0.00 | 0.00 | 36 | 1011.8 |
| 20260503224018 | 15 | 240 | 1.6 | 8.0 | 0.00 | 0.00 | 0.00 | 38 | 1011.8 |
| 20260503223019 | 15 | 248 | 1.6 | 4.8 | 0.00 | 0.00 | 0.00 | 37 | 1011.7 |
| 20260503222019 | 15 | 244 | 3.2 | 8.0 | 0.00 | 0.00 | 0.00 | 37 | 1011.7 |
| 20260503221039 | 15 | 244 | 4.8 | 9.7 | 0.00 | 0.00 | 0.00 | 36 | 1011.7 |
| 20260503220019 | 15 | 234 | 3.2 | 6.4 | 0.00 | 0.00 | 0.00 | 35 | 1011.7 |
| 20260503215017 | 15 | 265 | 4.8 | 11.3 | 0.00 | 0.00 | 0.00 | 36 | 1011.7 |
| 20260503214016 | 15 | 226 | 3.2 | 12.9 | 0.00 | 0.00 | 0.00 | 36 | 1011.7 |
| 20260503213019 | 15 | 252 | 3.2 | 11.3 | 0.00 | 0.00 | 0.00 | 35 | 1011.6 |
| 20260503212020 | 15 | 286 | 3.2 | 8.0 | 0.00 | 0.00 | 0.00 | 35 | 1011.5 |
| 20260503211200 | 15 | 245 | 4.8 | 9.7 | 0.00 | 0.00 | 0.00 | 35 | 1011.6 |
| 20260503210018 | 15 | 273 | 3.2 | 9.7 | 0.00 | 0.00 | 0.00 | 35 | 1011.5 |
| 20260503205018 | 15 | 246 | 6.4 | 12.9 | 0.00 | 0.00 | 0.00 | 35 | 1011.6 |
| 20260503204018 | 15 | 245 | 6.4 | 16.1 | 0.00 | 0.00 | 0.00 | 35 | 1011.5 |
| 20260503203018 | 15 | 253 | 6.4 | 11.3 | 0.00 | 0.00 | 0.00 | 35 | 1011.5 |
| 20260503202018 | 15 | 308 | 4.8 | 12.9 | 0.00 | 0.00 | 0.00 | 36 | 1011.5 |
| 20260503201018 | 15 | 27 | 4.8 | 14.5 | 0.00 | 0.00 | 0.00 | 36 | 1011.6 |
| 20260503200018 | 15 | 290 | 3.2 | 12.9 | 0.00 | 0.00 | 0.00 | 36 | 1011.5 |
| 20260503195019 | 15 | 250 | 4.8 | 14.5 | 0.00 | 0.00 | 0.00 | 36 | 1011.6 |
| 20260503194019 | 15 | 261 | 3.2 | 11.3 | 0.00 | 0.00 | 0.00 | 36 | 1011.7 |
| 20260503193019 | 15 | 343 | 4.8 | 12.9 | 0.00 | 0.00 | 0.00 | 35 | 1011.8 |
| 20260503192016 | 15 | 226 | 4.8 | 12.9 | 0.00 | 0.00 | 0.00 | 36 | 1011.9 |
| 20260503191016 | 15 | 260 | 4.8 | 11.3 | 0.00 | 0.00 | 0.00 | 37 | 1012.0 |
| 20260503190017 | 15 | 317 | 3.2 | 9.7 | 0.00 | 0.00 | 0.00 | 37 | 1012.2 |
| 20260503185040 | 15 | 231 | 6.4 | 11.3 | 0.00 | 0.00 | 0.00 | 37 | 1012.3 |
| 20260503184020 | 15 | 336 | 4.8 | 9.7 | 0.00 | 0.00 | 0.00 | 37 | 1012.4 |
| 20260503183037 | 14 | 313 | 4.8 | 14.5 | 0.00 | 0.00 | 0.00 | 39 | 1012.4 |
| 20260503182017 | 13 | 338 | 6.4 | 12.9 | 0.00 | 0.00 | 0.00 | 39 | 1012.6 |
| 20260503181017 | 13 | 260 | 4.8 | 12.9 | 0.00 | 0.00 | 0.00 | 41 | 1012.7 |
| 20260503180040 | 13 | 241 | 4.8 | 9.7 | 0.00 | 0.00 | 0.00 | 41 | 1012.7 |